BAW3Z EGLL-KMIA

Flight info

Callsign BAW3Z
Flight time N/A
Altitude 36000
Route CPT L9 BUCGO DCT FELCA DCT OFSOX DCT BANBA DCT ADARA/M083F370 NATF MUSAK/M083F380 N278C GAYBL DCT 41N065W DCT DRYED M201 VIRST Y494 WHOOS/N0476F380 Y494 WEAKK Y493 BAHAA AR15 HIBAC TARPN3
Aircraft A388/J-SADE2E3FGHIJ3J4J5M1RWXY/LB1D1

Departure

Time N/A
Airport London Heathrow Airport (EGLL)

Arrival

Time 2026-04-30 19:05
Airport Miami International Airport (KMIA)
Time Latitude Longitude Altitude Speed Heading
2026-04-30 18:49 25.72585 -80.24078 3987 ft 205 kts 300°
2026-04-30 18:49 25.73627 -80.25177 3990 ft 212 kts 333°
2026-04-30 18:50 25.75072 -80.25444 3996 ft 217 kts
2026-04-30 18:50 25.76437 -80.24762 3994 ft 220 kts 42°
2026-04-30 18:50 25.77239 -80.23327 4010 ft 225 kts 77°
2026-04-30 18:50 25.77214 -80.21615 3999 ft 223 kts 110°
2026-04-30 18:51 25.76689 -80.20012 3995 ft 221 kts 112°
2026-04-30 18:51 25.76162 -80.18441 3996 ft 216 kts 112°
2026-04-30 18:51 25.75648 -80.16863 3994 ft 217 kts 111°
2026-04-30 18:51 25.75147 -80.15315 4022 ft 216 kts 114°
2026-04-30 18:52 25.74256 -80.13994 3993 ft 212 kts 149°
2026-04-30 18:52 25.72906 -80.13503 4003 ft 207 kts 182°
2026-04-30 18:52 25.71543 -80.13901 3999 ft 205 kts 213°
2026-04-30 18:52 25.70575 -80.15019 3999 ft 203 kts 243°
2026-04-30 18:53 25.70268 -80.16550 4001 ft 206 kts 270°
2026-04-30 18:53 25.70121 -80.18073 4013 ft 192 kts 251°
2026-04-30 18:53 25.69725 -80.19428 4012 ft 178 kts 251°
2026-04-30 18:53 25.69343 -80.20758 3995 ft 183 kts 252°
2026-04-30 18:54 25.68953 -80.22090 3997 ft 186 kts 251°
2026-04-30 18:54 25.68609 -80.23460 3993 ft 186 kts 261°
2026-04-30 18:54 25.68456 -80.24885 3992 ft 187 kts 263°
2026-04-30 18:54 25.68305 -80.26328 4011 ft 188 kts 263°
2026-04-30 18:55 25.68156 -80.27758 4001 ft 188 kts 263°
2026-04-30 18:55 25.67859 -80.30609 3999 ft 184 kts 262°
2026-04-30 18:55 25.67719 -80.32029 4000 ft 187 kts 263°
2026-04-30 18:56 25.67565 -80.34859 4014 ft 183 kts 267°
2026-04-30 18:56 25.67548 -80.36274 4013 ft 186 kts 268°
2026-04-30 18:56 25.67529 -80.37702 4001 ft 185 kts 268°
2026-04-30 18:57 25.67479 -80.40557 3996 ft 183 kts 268°
2026-04-30 18:57 25.67458 -80.41969 4009 ft 186 kts 268°
2026-04-30 18:57 25.67430 -80.43420 4003 ft 186 kts 268°
2026-04-30 18:58 25.67371 -80.46292 4007 ft 186 kts 268°
2026-04-30 18:58 25.67353 -80.47690 3997 ft 185 kts 269°
2026-04-30 18:58 25.67322 -80.49128 3994 ft 184 kts 267°
2026-04-30 18:59 25.68658 -80.51413 4014 ft 195 kts 339°
2026-04-30 19:00 25.72680 -80.51841 3224 ft 188 kts 353°
2026-04-30 19:00 25.73982 -80.51955 3021 ft 190 kts 354°
2026-04-30 19:00 25.76256 -80.50632 3010 ft 204 kts 53°
2026-04-30 19:01 25.77763 -80.48039 2591 ft 196 kts 75°
2026-04-30 19:01 25.77983 -80.46579 2494 ft 187 kts 87°
2026-04-30 19:02 25.78100 -80.43824 2200 ft 175 kts 90°
2026-04-30 19:02 25.78208 -80.41205 1770 ft 163 kts 90°
2026-04-30 19:03 25.78306 -80.38931 1376 ft 142 kts 92°
2026-04-30 19:03 25.78389 -80.36753 1017 ft 141 kts 91°
2026-04-30 19:04 25.78484 -80.34618 676 ft 133 kts 90°
2026-04-30 19:04 25.78568 -80.32611 298 ft 126 kts 89°
2026-04-30 19:05 25.78651 -80.30669 22 ft 126 kts 91°
2026-04-30 19:05 25.78708 -80.29369 23 ft 47 kts 86°
2026-04-30 19:06 25.78785 -80.29170 22 ft 10 kts 48°
2026-04-30 19:06 25.78817 -80.29097 21 ft 12 kts 82°
2026-04-30 19:06 25.78837 -80.28975 21 ft 7 kts 74°
2026-04-30 19:07 25.78868 -80.28839 21 ft 11 kts 85°
2026-04-30 19:07 25.78871 -80.28777 22 ft 1 kts 89°
2026-04-30 19:08 25.78873 -80.28678 19 ft 8 kts 87°
2026-04-30 19:08 25.78874 -80.28663 20 ft 0 kts 83°
2026-04-30 19:08 25.78874 -80.28662 20 ft 0 kts 83°
2026-04-30 19:09 25.78942 -80.28572 21 ft 9 kts 33°
2026-04-30 19:09 25.78956 -80.28562 23 ft 6 kts 33°
2026-04-30 19:09 25.79010 -80.28522 24 ft 13 kts 34°
2026-04-30 19:10 25.79138 -80.28430 22 ft 7 kts 29°
2026-04-30 19:10 25.79252 -80.28362 22 ft 10 kts 42°
2026-04-30 19:11 25.79280 -80.28333 23 ft 3 kts 35°
2026-04-30 19:11 25.79322 -80.28335 21 ft 4 kts 311°
2026-04-30 19:11 25.79343 -80.28375 22 ft 5 kts 322°
2026-04-30 19:12 25.79362 -80.28383 20 ft 4 kts 352°
2026-04-30 19:12 25.79384 -80.28382 21 ft 4 kts 10°
2026-04-30 19:12 25.79401 -80.28379 22 ft 2 kts 12°
2026-04-30 19:13 25.79403 -80.28378 22 ft 0 kts 12°